Date String (YYYY-MM-DD hh:mm:ss) UTC,Instrument flags,Ambient pressure (hPa),Sample flow (lpm),Bypass flow (lpm),Sample temperature (°C),Ambient temperature (°C),ASC tube jacket temperature (°C),LED temperature (°C),Box temperature (°C),Sample RH (%),Span deviation,Mass concentration (μg/m³),Mass concentration (μg/m³),Mass concentration (μg/m³)
DateTimeUTC,F1_M11,P_M11,Q1_M11,Q2_M11,T1_M11,T2_M11,T3_M11,T4_M11,T5_M11,U1_M11,ZSPAN_M11,X0_M11,X2_M11,X1_M11
2021-11-23 18:00:00,,0818.2,5.00,0.00,26.9,26.0,00.0,35.8,28.6,03.1,0000.0,0002.70,0000.72,0000.39
2021-11-23 18:01:00,,0818.2,5.00,0.00,26.9,26.0,00.0,35.8,28.7,03.1,0000.0,0002.16,0000.66,0000.38
2021-11-23 18:02:00,,0818.3,5.00,0.00,26.9,26.0,00.0,35.8,28.7,03.2,0000.0,0003.20,0000.65,0000.37
2021-11-23 18:03:00,,0818.2,5.00,0.00,26.9,25.9,00.0,35.9,28.6,03.1,0000.0,0003.27,0000.70,0000.38
2021-11-23 18:04:00,,0818.1,4.99,0.00,26.9,26.0,00.0,35.9,28.7,03.2,0000.0,0003.18,0000.72,0000.38
2021-11-23 18:05:00,,0818.0,5.00,0.00,26.9,26.0,00.0,35.9,28.7,03.4,0000.0,0002.91,0000.74,0000.38
2021-11-23 18:06:00,,0818.0,5.02,0.00,26.9,26.0,00.0,35.9,28.7,03.3,0000.0,0002.94,0000.75,0000.38
2021-11-23 18:07:00,,0817.9,5.00,0.00,27.0,26.0,00.0,35.9,28.7,03.2,0000.0,0003.18,0000.77,0000.38
2021-11-23 18:08:00,,0817.9,5.00,0.00,27.0,26.0,00.0,35.9,28.7,03.4,0000.0,0003.39,0000.77,0000.38
2021-11-23 18:09:00,,0817.9,4.99,0.00,27.0,26.0,00.0,35.9,28.7,03.5,0000.0,0003.60,0000.80,0000.38
2021-11-23 18:10:00,,0817.8,5.02,0.00,27.0,26.0,00.0,35.9,28.7,03.6,0000.0,0003.68,0000.83,0000.38
2021-11-23 18:11:00,,0817.9,5.01,0.00,27.0,26.0,00.0,35.9,28.7,03.7,0000.0,0003.58,0000.83,0000.38
2021-11-23 18:12:00,,0818.0,5.01,0.00,27.0,26.1,00.0,35.9,28.7,03.6,0000.0,0003.51,0000.82,0000.38
2021-11-23 18:13:00,,0817.9,5.00,0.00,27.0,26.0,00.0,36.0,28.7,03.7,0000.0,0002.50,0000.82,0000.39
2021-11-23 18:14:00,,0817.7,5.00,0.00,27.0,26.1,00.0,36.0,28.7,03.6,0000.0,0002.28,0000.79,0000.39
2021-11-23 18:15:00,,0817.6,5.00,0.00,27.0,26.1,00.0,36.0,28.7,03.6,0000.0,0002.16,0000.73,0000.38
2021-11-23 18:16:00,,0817.7,5.00,0.00,27.0,26.1,00.0,36.0,28.8,03.4,0000.0,0002.14,0000.73,0000.38
2021-11-23 18:17:00,,0817.7,4.99,0.00,27.0,26.1,00.0,36.0,28.8,03.2,0000.0,0001.93,0000.70,0000.39
2021-11-23 18:18:00,,0817.7,5.00,0.00,27.0,26.1,00.0,36.0,28.8,03.2,0000.0,0001.67,0000.67,0000.39
2021-11-23 18:19:00,,0817.7,5.00,0.00,27.1,26.1,00.0,36.0,28.8,03.2,0000.0,0001.36,0000.64,0000.39
2021-11-23 18:20:00,,0817.7,5.00,0.00,27.1,26.2,00.0,36.0,28.8,03.3,0000.0,0001.19,0000.63,0000.40
2021-11-23 18:21:00,,0817.6,4.99,0.00,27.1,26.2,00.0,36.0,28.9,03.3,0000.0,0000.98,0000.57,0000.39
2021-11-23 18:22:00,,0817.5,5.01,0.00,27.1,26.2,00.0,36.1,28.9,03.3,0000.0,0000.79,0000.53,0000.39
2021-11-23 18:23:00,,0817.4,5.00,0.00,27.1,26.2,00.0,36.1,28.9,03.1,0000.0,0000.75,0000.51,0000.39
2021-11-23 18:24:00,,0817.4,5.01,0.00,27.1,26.2,00.0,36.1,28.9,03.1,0000.0,0000.86,0000.56,0000.40
2021-11-23 18:25:00,,0817.6,4.99,0.00,27.1,26.3,00.0,36.1,28.9,03.3,0000.0,0000.98,0000.60,0000.40
2021-11-23 18:26:00,,0817.6,5.00,0.00,27.2,26.3,00.0,36.1,28.9,03.4,0000.0,0001.66,0000.64,0000.40
2021-11-23 18:27:00,,0817.5,5.00,0.00,27.2,26.2,00.0,36.1,28.9,03.2,0000.0,0002.37,0000.65,0000.40
2021-11-23 18:28:00,,0817.4,4.99,0.00,27.2,26.3,00.0,36.1,29.0,03.1,0000.0,0002.69,0000.65,0000.40
2021-11-23 18:29:00,,0817.0,5.00,0.00,27.2,26.3,00.0,36.1,29.0,03.2,0000.0,0002.76,0000.67,0000.41
2021-11-23 18:30:00,,0817.4,5.01,0.00,27.2,26.3,00.0,36.2,29.0,03.4,0000.0,0002.88,0000.72,0000.41
2021-11-23 18:31:00,,0817.5,5.00,0.00,27.2,26.3,00.0,36.2,29.0,03.5,0000.0,0002.87,0000.72,0000.41
2021-11-23 18:32:00,,0817.4,5.00,0.00,27.2,26.3,00.0,36.2,29.0,03.6,0000.0,0002.92,0000.74,0000.41
2021-11-23 18:33:00,,0817.4,5.00,0.00,27.3,26.4,00.0,36.2,29.0,03.6,0000.0,0003.00,0000.78,0000.41
2021-11-23 18:34:00,,0817.3,5.00,0.00,27.3,26.3,00.0,36.2,29.0,03.6,0000.0,0003.02,0000.79,0000.41
2021-11-23 18:35:00,,0817.3,5.01,0.00,27.3,26.4,00.0,36.2,29.1,03.4,0000.0,0003.01,0000.78,0000.40
2021-11-23 18:36:00,,0817.3,5.00,0.00,27.3,26.4,00.0,36.2,29.1,03.6,0000.0,0002.99,0000.73,0000.39
2021-11-23 18:37:00,,0817.2,5.00,0.00,27.3,26.4,00.0,36.3,29.1,03.5,0000.0,0002.52,0000.71,0000.39
2021-11-23 18:38:00,,0817.2,5.02,0.00,27.4,26.4,00.0,36.3,29.1,03.5,0000.0,0001.78,0000.71,0000.39
2021-11-23 18:39:00,,0817.0,4.99,0.00,27.4,26.4,00.0,36.3,29.1,03.8,0000.0,0001.64,0000.74,0000.40
2021-11-23 18:40:00,,0816.9,4.99,0.00,27.4,26.4,00.0,36.3,29.1,03.7,0000.0,0001.55,0000.72,0000.39
2021-11-23 18:41:00,,0816.8,5.01,0.00,27.4,26.4,00.0,36.3,29.2,03.8,0000.0,0001.82,0000.71,0000.38
2021-11-23 18:42:00,,0817.0,4.99,0.00,27.4,26.5,00.0,36.3,29.2,03.9,0000.0,0002.38,0000.77,0000.37
2021-11-23 18:43:00,,0817.1,5.00,0.00,27.4,26.5,00.0,36.3,29.2,03.8,0000.0,0002.53,0000.80,0000.37
2021-11-23 18:44:00,,0817.1,4.99,0.00,27.4,26.5,00.0,36.4,29.2,03.9,0000.0,0002.49,0000.79,0000.38
2021-11-23 18:45:00,,0817.1,4.99,0.00,27.4,26.5,00.0,36.4,29.2,03.9,0000.0,0002.53,0000.81,0000.38
2021-11-23 18:46:00,,0817.1,5.01,0.00,27.5,26.6,00.0,36.4,29.2,03.7,0000.0,0002.49,0000.78,0000.37
2021-11-23 18:47:00,,0816.9,4.99,0.00,27.5,26.6,00.0,36.4,29.3,03.6,0000.0,0002.45,0000.78,0000.37
2021-11-23 18:48:00,,0816.6,5.01,0.00,27.5,26.6,00.0,36.4,29.3,03.6,0000.0,0002.35,0000.78,0000.37
2021-11-23 18:49:00,,0816.6,5.00,0.00,27.5,26.6,00.0,36.4,29.3,03.6,0000.0,0002.44,0000.78,0000.37
2021-11-23 18:50:00,,0816.7,4.99,0.00,27.5,26.6,00.0,36.5,29.3,03.4,0000.0,0002.41,0000.77,0000.37
2021-11-23 18:51:00,,0816.8,5.00,0.00,27.5,26.7,00.0,36.5,29.3,03.3,0000.0,0003.31,0000.83,0000.38
2021-11-23 18:52:00,,0816.9,5.00,0.00,27.5,26.7,00.0,36.5,29.3,03.3,0000.0,0003.29,0000.81,0000.39
2021-11-23 18:53:00,,0817.0,4.99,0.00,27.5,26.7,00.0,36.5,29.3,03.4,0000.0,0003.13,0000.79,0000.39
2021-11-23 18:54:00,,0816.8,5.00,0.00,27.5,26.7,00.0,36.5,29.3,03.4,0000.0,0003.14,0000.78,0000.39
2021-11-23 18:55:00,,0816.9,4.99,0.00,27.5,26.7,00.0,36.5,29.3,03.5,0000.0,0003.26,0000.79,0000.39
2021-11-23 18:56:00,,0817.0,5.02,0.00,27.5,26.7,00.0,36.5,29.3,04.0,0000.0,0003.36,0000.79,0000.40
2021-11-23 18:57:00,,0817.0,4.99,0.00,27.6,26.7,00.0,36.5,29.3,04.3,0000.0,0003.36,0000.79,0000.40
2021-11-23 18:58:00,,0817.1,5.00,0.00,27.6,26.7,00.0,36.5,29.4,04.5,0000.0,0003.27,0000.77,0000.39
2021-11-23 18:59:00,,0817.1,4.99,0.00,27.6,26.8,00.0,36.6,29.5,04.3,0000.0,0003.29,0000.77,0000.38
